Location: ??? ????
(38.0580°N, 23.1536°E)
Time: 14:30:50
(UTC+00:00)

USA 81 - Pass Details

Date: 13 December 2025
Orbit: 783 x 785 km, 85.0° (Epoch: 17 January)

Event Time Altitude Azimuth Distance (km) Brightness Sun altitude
Rises 16:26:23 0° 358° (N) 3,282 7.1 -14.9°
Reaches altitude 10° 16:28:46 10° 1° (N) 2,349 6.3 -15.4°
Maximum altitude 16:34:02 70° 85° (E) 832 3.9 -16.3°
Drops below altitude 10° 16:39:15 10° 169° (S) 2,332 6.6 -17.3°
Sets 16:41:36 0° 172° (S) 3,255 7.4 -17.8°
